| time (UTC) | temp C | wind direction | speed KPH | gust KPH | rain 1hr cm | rain 24hr cm | rain mn cm | humidity % | barometer mb |
| 20260504150810 | 23 | 245 | 1.6 | 9.7 | 0.00 | 0.00 | 0.00 | 57 | 1011.6 |
| 20260504150310 | 23 | 235 | 1.6 | 9.7 | 0.00 | 0.00 | 0.00 | 59 | 1011.7 |
| 20260504141309 | 21 | 246 | 1.6 | 8.0 | 0.00 | 0.00 | 0.00 | 69 | 1011.8 |
| 20260504140809 | 20 | 255 | 1.6 | 6.4 | 0.00 | 0.00 | 0.00 | 68 | 1011.8 |
| 20260504140306 | 20 | 240 | 1.6 | 4.8 | 0.00 | 0.00 | 0.00 | 68 | 1011.9 |
| 20260504130803 | 18 | 238 | 0.0 | 3.2 | 0.00 | 0.00 | 0.00 | 74 | 1011.8 |
| 20260504130535 | 17 | 236 | 0.0 | 3.2 | 0.00 | 0.00 | 0.00 | 74 | 1011.8 |
| 20260504130421 | 17 | 219 | 0.0 | 3.2 | 0.00 | 0.00 | 0.00 | 77 | 1011.7 |
| 20260504110300 | 10 | 266 | 0.0 | 0.0 | 0.00 | 0.00 | 0.00 | 88 | 1011.2 |
| 20260504100256 | 11 | 266 | 0.0 | 0.0 | 0.00 | 0.00 | 0.00 | 84 | 1011.1 |
| 20260504081749 | 10 | 294 | 0.0 | 1.6 | 0.00 | 0.00 | 0.00 | 81 | 1011.3 |
| 20260504081517 | 10 | 319 | 0.0 | 0.0 | 0.00 | 0.00 | 0.00 | 81 | 1011.2 |
| 20260504080746 | 10 | 319 | 0.0 | 0.0 | 0.00 | 0.00 | 0.00 | 81 | 1011.3 |
| 20260504080520 | 10 | 319 | 0.0 | 0.0 | 0.00 | 0.00 | 0.00 | 81 | 1011.4 |
| 20260504070245 | 11 | 319 | 0.0 | 0.0 | 0.00 | 0.00 | 0.00 | 76 | 1011.9 |
| 20260504050743 | 12 | 311 | 0.0 | 3.2 | 0.00 | 0.00 | 0.00 | 70 | 1012.9 |
| 20260504050243 | 12 | 311 | 0.0 | 3.2 | 0.00 | 0.00 | 0.00 | 69 | 1012.8 |
| 20260504045744 | 12 | 245 | 0.0 | 3.2 | 0.00 | 0.00 | 0.00 | 70 | 1012.8 |
| 20260504045243 | 12 | 212 | 0.0 | 1.6 | 0.00 | 0.00 | 0.00 | 70 | 1012.9 |
| 20260504044741 | 12 | 212 | 0.0 | 0.0 | 0.00 | 0.00 | 0.00 | 69 | 1013.0 |
| 20260504044241 | 12 | 263 | 0.0 | 1.6 | 0.00 | 0.00 | 0.00 | 69 | 1013.1 |
| 20260504043741 | 12 | 263 | 0.0 | 1.6 | 0.00 | 0.00 | 0.00 | 70 | 1013.0 |
| 20260504043239 | 12 | 101 | 0.0 | 1.6 | 0.00 | 0.00 | 0.00 | 70 | 1013.1 |
| 20260504042739 | 12 | 101 | 0.0 | 1.6 | 0.00 | 0.00 | 0.00 | 70 | 1013.1 |
| 20260504042239 | 12 | 101 | 0.0 | 1.6 | 0.00 | 0.00 | 0.00 | 71 | 1013.1 |
| 20260504041740 | 12 | 107 | 0.0 | 1.6 | 0.00 | 0.00 | 0.00 | 71 | 1013.1 |
| 20260504041240 | 12 | 107 | 0.0 | 1.6 | 0.00 | 0.00 | 0.00 | 71 | 1013.2 |
| 20260504041010 | 11 | 107 | 0.0 | 1.6 | 0.00 | 0.00 | 0.00 | 71 | 1013.1 |
| 20260504040239 | 11 | 15 | 0.0 | 1.6 | 0.00 | 0.00 | 0.00 | 72 | 1013.2 |
| 20260504035738 | 11 | 15 | 0.0 | 0.0 | 0.00 | 0.00 | 0.00 | 71 | 1013.3 |
| 20260504035237 | 11 | 15 | 0.0 | 1.6 | 0.00 | 0.00 | 0.00 | 71 | 1013.3 |
| 20260504034737 | 11 | 15 | 0.0 | 1.6 | 0.00 | 0.00 | 0.00 | 72 | 1013.3 |
| 20260504034508 | 11 | 15 | 0.0 | 4.8 | 0.00 | 0.00 | 0.00 | 72 | 1013.3 |
| 20260504033737 | 11 | 15 | 0.0 | 4.8 | 0.00 | 0.00 | 0.00 | 73 | 1013.3 |
| 20260504033238 | 11 | 243 | 0.0 | 4.8 | 0.00 | 0.00 | 0.00 | 75 | 1013.4 |
| 20260504032738 | 10 | 110 | 0.0 | 0.0 | 0.00 | 0.00 | 0.00 | 76 | 1013.4 |
| 20260504032237 | 10 | 110 | 0.0 | 0.0 | 0.00 | 0.00 | 0.00 | 77 | 1013.4 |
| 20260504031737 | 10 | 110 | 0.0 | 0.0 | 0.00 | 0.00 | 0.00 | 78 | 1013.5 |
| 20260504031238 | 10 | 110 | 0.0 | 0.0 | 0.00 | 0.00 | 0.00 | 78 | 1013.5 |
| 20260504030736 | 10 | 110 | 0.0 | 0.0 | 0.00 | 0.00 | 0.00 | 78 | 1013.6 |
| 20260504030236 | 10 | 110 | 0.0 | 0.0 | 0.00 | 0.00 | 0.00 | 79 | 1013.6 |
| 20260504025736 | 10 | 110 | 0.0 | 0.0 | 0.00 | 0.00 | 0.00 | 81 | 1013.6 |
| 20260504025235 | 10 | 110 | 0.0 | 0.0 | 0.00 | 0.00 | 0.00 | 81 | 1013.6 |
| 20260504025005 | 10 | 110 | 0.0 | 0.0 | 0.00 | 0.00 | 0.00 | 80 | 1013.6 |
| 20260504024235 | 10 | 110 | 0.0 | 0.0 | 0.00 | 0.00 | 0.00 | 79 | 1013.6 |
| 20260504023736 | 10 | 110 | 0.0 | 0.0 | 0.00 | 0.00 | 0.00 | 78 | 1013.5 |
| 20260504023505 | 10 | 110 | 0.0 | 0.0 | 0.00 | 0.00 | 0.00 | 78 | 1013.5 |
| 20260504023351 | 10 | 110 | 0.0 | 0.0 | 0.00 | 0.00 | 0.00 | 78 | 1013.5 |
| 20260504022234 | 11 | 110 | 0.0 | 0.0 | 0.00 | 0.00 | 0.00 | 77 | 1013.5 |
| 20260504021734 | 11 | 110 | 0.0 | 0.0 | 0.00 | 0.00 | 0.00 | 76 | 1013.5 |
| 20260504021234 | 11 | 110 | 0.0 | 0.0 | 0.00 | 0.00 | 0.00 | 76 | 1013.5 |
| 20260504020732 | 11 | 110 | 0.0 | 0.0 | 0.00 | 0.00 | 0.00 | 76 | 1013.4 |
| 20260504020233 | 11 | 110 | 0.0 | 0.0 | 0.00 | 0.00 | 0.00 | 74 | 1013.5 |
| 20260504015732 | 11 | 110 | 0.0 | 0.0 | 0.00 | 0.00 | 0.00 | 72 | 1013.4 |
| 20260504015504 | 12 | 110 | 0.0 | 0.0 | 0.00 | 0.00 | 0.00 | 71 | 1013.4 |
| 20260504015352 | 12 | 110 | 0.0 | 0.0 | 0.00 | 0.00 | 0.00 | 71 | 1013.4 |
| 20260504014233 | 12 | 110 | 0.0 | 0.0 | 0.00 | 0.00 | 0.00 | 69 | 1013.3 |
| 20260504013734 | 12 | 110 | 0.0 | 0.0 | 0.00 | 0.00 | 0.00 | 67 | 1013.3 |
| 20260504013233 | 13 | 110 | 0.0 | 0.0 | 0.00 | 0.00 | 0.00 | 66 | 1013.3 |
| 20260504012732 | 13 | 110 | 0.0 | 0.0 | 0.00 | 0.00 | 0.00 | 64 | 1013.2 |
| 20260504012231 | 13 | 110 | 0.0 | 0.0 | 0.00 | 0.00 | 0.00 | 64 | 1013.2 |
| 20260504011730 | 14 | 110 | 0.0 | 0.0 | 0.00 | 0.00 | 0.00 | 63 | 1013.2 |
| 20260504011232 | 14 | 110 | 0.0 | 0.0 | 0.00 | 0.00 | 0.00 | 59 | 1013.1 |
| 20260504010730 | 15 | 110 | 0.0 | 0.0 | 0.00 | 0.00 | 0.00 | 58 | 1013.1 |
| 20260504010230 | 15 | 110 | 0.0 | 0.0 | 0.00 | 0.00 | 0.00 | 58 | 1013.1 |
| 20260504005729 | 15 | 110 | 0.0 | 0.0 | 0.00 | 0.00 | 0.00 | 56 | 1013.0 |
| 20260504005230 | 15 | 110 | 0.0 | 0.0 | 0.00 | 0.00 | 0.00 | 55 | 1013.1 |
| 20260504004729 | 16 | 110 | 0.0 | 0.0 | 0.00 | 0.00 | 0.00 | 53 | 1013.1 |
| 20260504004228 | 16 | 110 | 0.0 | 1.6 | 0.00 | 0.00 | 0.00 | 52 | 1013.1 |
| 20260504003726 | 17 | 110 | 0.0 | 1.6 | 0.00 | 0.00 | 0.00 | 50 | 1013.1 |
| 20260504003225 | 17 | 110 | 0.0 | 1.6 | 0.00 | 0.00 | 0.00 | 49 | 1013.2 |
| 20260504002723 | 18 | 110 | 0.0 | 1.6 | 0.00 | 0.00 | 0.00 | 49 | 1013.2 |
| 20260504002224 | 18 | 110 | 0.0 | 1.6 | 0.00 | 0.00 | 0.00 | 48 | 1013.2 |
| 20260504001722 | 19 | 161 | 0.0 | 0.0 | 0.00 | 0.00 | 0.00 | 47 | 1013.3 |
| 20260504001222 | 20 | 161 | 0.0 | 1.6 | 0.00 | 0.00 | 0.00 | 44 | 1013.3 |
| 20260504000721 | 20 | 161 | 0.0 | 1.6 | 0.00 | 0.00 | 0.00 | 43 | 1013.3 |
| 20260504000221 | 21 | 155 | 0.0 | 1.6 | 0.00 | 0.00 | 0.00 | 42 | 1013.4 |
| 20260503235721 | 21 | 155 | 0.0 | 4.8 | 0.00 | 0.00 | 0.00 | 41 | 1013.4 |
| 20260503235221 | 21 | 167 | 1.6 | 11.3 | 0.00 | 0.00 | 0.00 | 40 | 1013.5 |
| 20260503234721 | 21 | 222 | 1.6 | 11.3 | 0.00 | 0.00 | 0.00 | 38 | 1013.7 |
| 20260503234222 | 22 | 231 | 0.0 | 4.8 | 0.00 | 0.00 | 0.00 | 39 | 1013.7 |
| 20260503233722 | 21 | 200 | 0.0 | 6.4 | 0.00 | 0.00 | 0.00 | 39 | 1013.7 |
| 20260503233222 | 21 | 201 | 0.0 | 6.4 | 0.00 | 0.00 | 0.00 | 39 | 1013.8 |
| 20260503232722 | 22 | 221 | 1.6 | 9.7 | 0.00 | 0.00 | 0.00 | 40 | 1013.9 |
| 20260503232221 | 21 | 197 | 1.6 | 9.7 | 0.00 | 0.00 | 0.00 | 39 | 1014.0 |
| 20260503231720 | 22 | 269 | 1.6 | 9.7 | 0.00 | 0.00 | 0.00 | 37 | 1014.0 |
| 20260503231220 | 22 | 19 | 1.6 | 9.7 | 0.00 | 0.00 | 0.00 | 39 | 1014.0 |
| 20260503230718 | 22 | 215 | 1.6 | 9.7 | 0.00 | 0.00 | 0.00 | 37 | 1014.0 |
| 20260503230450 | 22 | 14 | 1.6 | 6.4 | 0.00 | 0.00 | 0.00 | 39 | 1014.1 |
| 20260503225715 | 22 | 236 | 1.6 | 6.4 | 0.00 | 0.00 | 0.00 | 37 | 1014.2 |
| 20260503225215 | 22 | 207 | 0.0 | 11.3 | 0.00 | 0.00 | 0.00 | 37 | 1014.2 |
| 20260503224944 | 22 | 323 | 1.6 | 11.3 | 0.00 | 0.00 | 0.00 | 39 | 1014.2 |
| 20260503224212 | 22 | 262 | 1.6 | 4.8 | 0.00 | 0.00 | 0.00 | 40 | 1014.3 |
| 20260503223713 | 22 | 202 | 3.2 | 14.5 | 0.00 | 0.00 | 0.00 | 37 | 1014.3 |
| 20260503223213 | 22 | 242 | 3.2 | 14.5 | 0.00 | 0.00 | 0.00 | 37 | 1014.2 |
| 20260503222945 | 22 | 280 | 1.6 | 11.3 | 0.00 | 0.00 | 0.00 | 36 | 1014.3 |
| 20260503222212 | 22 | 212 | 1.6 | 4.8 | 0.00 | 0.00 | 0.00 | 38 | 1014.3 |
| 20260503221714 | 22 | 317 | 1.6 | 6.4 | 0.00 | 0.00 | 0.00 | 40 | 1014.4 |
| 20260503221213 | 22 | 252 | 3.2 | 8.0 | 0.00 | 0.00 | 0.00 | 37 | 1014.5 |
| 20260503220713 | 22 | 220 | 1.6 | 8.0 | 0.00 | 0.00 | 0.00 | 41 | 1014.5 |
| 20260503220213 | 22 | 135 | 1.6 | 8.0 | 0.00 | 0.00 | 0.00 | 37 | 1014.7 |
| 20260503215713 | 22 | 195 | 3.2 | 14.5 | 0.00 | 0.00 | 0.00 | 38 | 1014.8 |
| 20260503215213 | 22 | 211 | 3.2 | 14.5 | 0.00 | 0.00 | 0.00 | 37 | 1014.8 |
| 20260503214713 | 22 | 244 | 3.2 | 8.0 | 0.00 | 0.00 | 0.00 | 38 | 1014.9 |
| 20260503214443 | 22 | 158 | 3.2 | 8.0 | 0.00 | 0.00 | 0.00 | 40 | 1014.9 |
| 20260503213713 | 21 | 91 | 3.2 | 9.7 | 0.00 | 0.00 | 0.00 | 38 | 1015.1 |
| 20260503213213 | 21 | 270 | 3.2 | 9.7 | 0.00 | 0.00 | 0.00 | 37 | 1015.2 |
| 20260503212713 | 22 | 271 | 1.6 | 8.0 | 0.00 | 0.00 | 0.00 | 39 | 1015.3 |
| 20260503212214 | 22 | 222 | 3.2 | 9.7 | 0.00 | 0.00 | 0.00 | 37 | 1015.4 |
| 20260503211713 | 21 | 194 | 3.2 | 9.7 | 0.00 | 0.00 | 0.00 | 38 | 1015.4 |
| 20260503211446 | 22 | 258 | 1.6 | 6.4 | 0.00 | 0.00 | 0.00 | 40 | 1015.6 |
| 20260503210714 | 22 | 224 | 3.2 | 11.3 | 0.00 | 0.00 | 0.00 | 37 | 1015.7 |
| 20260503210212 | 21 | 239 | 3.2 | 12.9 | 0.00 | 0.00 | 0.00 | 41 | 1015.7 |
| 20260503205714 | 21 | 68 | 3.2 | 12.9 | 0.00 | 0.00 | 0.00 | 40 | 1015.8 |
| 20260503205213 | 21 | 225 | 3.2 | 19.3 | 0.00 | 0.00 | 0.00 | 40 | 1015.9 |
| 20260503204712 | 21 | 229 | 3.2 | 19.3 | 0.00 | 0.00 | 0.00 | 41 | 1015.9 |
| 20260503204445 | 21 | 210 | 3.2 | 12.9 | 0.00 | 0.00 | 0.00 | 43 | 1016.0 |
| 20260503203712 | 21 | 203 | 1.6 | 4.8 | 0.00 | 0.00 | 0.00 | 39 | 1016.3 |
| 20260503203441 | 21 | 202 | 1.6 | 12.9 | 0.00 | 0.00 | 0.00 | 41 | 1016.3 |
| 20260503202710 | 21 | 203 | 3.2 | 12.9 | 0.00 | 0.00 | 0.00 | 38 | 1016.4 |
| 20260503202211 | 21 | 139 | 3.2 | 8.0 | 0.00 | 0.00 | 0.00 | 40 | 1016.5 |
| 20260503201711 | 21 | 272 | 3.2 | 11.3 | 0.00 | 0.00 | 0.00 | 43 | 1016.6 |
| 20260503201209 | 21 | 143 | 3.2 | 11.3 | 0.00 | 0.00 | 0.00 | 38 | 1016.8 |
| 20260503200708 | 21 | 220 | 3.2 | 12.9 | 0.00 | 0.00 | 0.00 | 45 | 1016.9 |
| 20260503200209 | 21 | 85 | 3.2 | 12.9 | 0.00 | 0.00 | 0.00 | 44 | 1017.2 |
| 20260503195940 | 21 | 162 | 3.2 | 9.7 | 0.00 | 0.00 | 0.00 | 44 | 1017.3 |
| 20260503195209 | 21 | 259 | 3.2 | 8.0 | 0.00 | 0.00 | 0.00 | 41 | 1017.4 |
| 20260503194710 | 21 | 236 | 3.2 | 8.0 | 0.00 | 0.00 | 0.00 | 40 | 1017.5 |
| 20260503194207 | 21 | 248 | 3.2 | 6.4 | 0.00 | 0.00 | 0.00 | 42 | 1017.7 |
| 20260503193940 | 21 | 281 | 3.2 | 6.4 | 0.00 | 0.00 | 0.00 | 42 | 1017.7 |
| 20260503193439 | 21 | 219 | 3.2 | 8.0 | 0.00 | 0.00 | 0.00 | 40 | 1017.7 |
| 20260503192706 | 20 | 243 | 3.2 | 8.0 | 0.00 | 0.00 | 0.00 | 37 | 1017.8 |
| 20260503192205 | 20 | 3 | 3.2 | 8.0 | 0.00 | 0.00 | 0.00 | 44 | 1018.0 |
| 20260503191936 | 21 | 281 | 3.2 | 8.0 | 0.00 | 0.00 | 0.00 | 44 | 1018.0 |
| 20260503191204 | 20 | 271 | 3.2 | 8.0 | 0.00 | 0.00 | 0.00 | 41 | 1018.1 |
| 20260503190705 | 21 | 228 | 3.2 | 9.7 | 0.00 | 0.00 | 0.00 | 42 | 1018.1 |
| 20260503190205 | 20 | 226 | 3.2 | 9.7 | 0.00 | 0.00 | 0.00 | 43 | 1018.2 |
| 20260503185705 | 21 | 155 | 3.2 | 9.7 | 0.00 | 0.00 | 0.00 | 46 | 1018.3 |
| 20260503185204 | 21 | 223 | 3.2 | 9.7 | 0.00 | 0.00 | 0.00 | 45 | 1018.3 |
| 20260503184935 | 21 | 249 | 1.6 | 9.7 | 0.00 | 0.00 | 0.00 | 39 | 1018.4 |
| 20260503184204 | 20 | 166 | 1.6 | 6.4 | 0.00 | 0.00 | 0.00 | 44 | 1018.5 |
| 20260503183937 | 20 | 245 | 3.2 | 6.4 | 0.00 | 0.00 | 0.00 | 44 | 1018.5 |
| 20260503183435 | 20 | 219 | 3.2 | 8.0 | 0.00 | 0.00 | 0.00 | 45 | 1018.5 |
| 20260503182933 | 20 | 261 | 3.2 | 11.3 | 0.00 | 0.00 | 0.00 | 39 | 1018.6 |
| 20260503182202 | 20 | 194 | 3.2 | 11.3 | 0.00 | 0.00 | 0.00 | 46 | 1018.6 |
| 20260503181935 | 20 | 200 | 3.2 | 9.7 | 0.00 | 0.00 | 0.00 | 41 | 1018.7 |
| 20260503181203 | 20 | 143 | 3.2 | 9.7 | 0.00 | 0.00 | 0.00 | 41 | 1018.8 |
| 20260503180702 | 20 | 250 | 3.2 | 9.7 | 0.00 | 0.00 | 0.00 | 42 | 1018.9 |
| 20260503180203 | 20 | 129 | 3.2 | 14.5 | 0.00 | 0.00 | 0.00 | 41 | 1018.8 |
| 20260503175703 | 20 | 53 | 3.2 | 14.5 | 0.00 | 0.00 | 0.00 | 49 | 1019.0 |
| 20260503175204 | 20 | 288 | 3.2 | 9.7 | 0.00 | 0.00 | 0.00 | 46 | 1019.0 |
| 20260503174702 | 19 | 101 | 3.2 | 14.5 | 0.00 | 0.00 | 0.00 | 45 | 1019.1 |
| 20260503174204 | 19 | 223 | 3.2 | 14.5 | 0.00 | 0.00 | 0.00 | 44 | 1019.2 |
| 20260503173703 | 19 | 251 | 3.2 | 8.0 | 0.00 | 0.00 | 0.00 | 46 | 1019.3 |
| 20260503173431 | 19 | 331 | 3.2 | 8.0 | 0.00 | 0.00 | 0.00 | 41 | 1019.4 |
| 20260503172702 | 19 | 172 | 3.2 | 11.3 | 0.00 | 0.00 | 0.00 | 45 | 1019.5 |
| 20260503172200 | 19 | 274 | 3.2 | 11.3 | 0.00 | 0.00 | 0.00 | 41 | 1019.5 |
| 20260503171703 | 19 | 139 | 3.2 | 9.7 | 0.00 | 0.00 | 0.00 | 42 | 1019.6 |
| 20260503171200 | 18 | 202 | 3.2 | 8.0 | 0.00 | 0.00 | 0.00 | 44 | 1019.6 |
| 20260503170700 | 18 | 312 | 3.2 | 8.0 | 0.00 | 0.00 | 0.00 | 44 | 1019.7 |
| 20260503170200 | 19 | 298 | 3.2 | 8.0 | 0.00 | 0.00 | 0.00 | 44 | 1019.8 |
| 20260503160157 | 17 | 283 | 3.2 | 11.3 | 0.00 | 0.00 | 0.00 | 48 | 1020.6 |